This is the latest recevied weather packets stored in our database for station/object SP2NBH-2. If no packets are shown the sender has not sent any weather packets the latest 10 day(s).
| Time | Temp. | Humidity | Pressure | Rain* | Wind** | Luminosity | Snow |
|---|---|---|---|---|---|---|---|
| 1777658705 | 13.89° C | 50% | 1025.4 hPa | - | - | - | - |
| 1777657805 | 15° C | 46% | 1025.4 hPa | - | - | - | - |
| 1777656905 | 16.11° C | 41% | 1025.4 hPa | - | - | - | - |
| 1777656036 | 17.22° C | 40% | 1025.4 hPa | - | - | - | - |
| 1777656004 | 17.22° C | 40% | 1025.4 hPa | - | - | - | - |
| 1777655104 | 18.33° C | 36% | 1025.4 hPa | - | - | - | - |
| 1777654240 | 18.89° C | 34% | 1025.4 hPa | - | - | - | - |
| 1777654204 | 18.89° C | 34% | 1025.4 hPa | - | - | - | - |
| 1777653304 | 20° C | 32% | 1025.5 hPa | - | - | - | - |
| 1777652404 | 29.44° C | 21% | 1025.6 hPa | - | - | - | - |
| 1777650697 | 31.67° C | 19% | 1025.8 hPa | - | - | - | - |
| 1777649797 | 31.11° C | 20% | 1025.9 hPa | - | - | - | - |
| 1777648930 | 32.22° C | 19% | 1025.9 hPa | - | - | - | - |
| 1777648897 | 32.22° C | 19% | 1025.9 hPa | - | - | - | - |
| 1777647996 | 28.89° C | 22% | 1026.2 hPa | - | - | - | - |
| 1777647096 | 30.56° C | 21% | 1026.3 hPa | - | - | - | - |
| 1777646196 | 28.33° C | 22% | 1026.4 hPa | - | - | - | - |
| 1777645296 | 28.89° C | 22% | 1026.6 hPa | - | - | - | - |
| 1777644395 | 25.56° C | 26% | 1026.7 hPa | - | - | - | - |
| 1777642597 | 23.33° C | 28% | 1026.8 hPa | - | - | - | - |
| 1777641730 | 23.89° C | 28% | 1027 hPa | - | - | - | - |
| 1777641697 | 23.89° C | 28% | 1027 hPa | - | - | - | - |
| 1777640798 | 23.33° C | 28% | 1027.2 hPa | - | - | - | - |
| 1777639897 | 23.89° C | 27% | 1027.5 hPa | - | - | - | - |
| 1777638997 | 23.33° C | 30% | 1027.7 hPa | - | - | - | - |
* Rain since midnight (hover to see other rain measurements)
** Current wind speed in m/s (hover to see current wind gust speed)